Weather History for Colby, KS

Change the Weather History Date:

Monday, December 9, 2013

  Actual Average (KGLD) Record (KGLD)
Temperature  
Mean Temperature 9 °F 30 °F  
Max Temperature 23 °F 43 °F 76 °F (1939)
Min Temperature -5 °F 18 °F -23 °F (1919)
Degree Days  
Heating Degree Days 56 35  
Month to date heating degree days 305  
Since 1 July heating degree days 1624  
Cooling Degree Days 0 0  
Month to date cooling degree days 0  
Year to date cooling degree days 941  
Moisture  
Dew Point 4 °F    
Average Humidity 80    
Maximum Humidity 92    
Minimum Humidity 59    
Precipitation  
Precipitation 0.00 in 0.01 in 0.51 in (1923)
Month to date precipitation 0.14  
Year to date precipitation 19.34  
Snow  
Snow 0.00 in 0.20 in - ()
Month to date snowfall 1.6  
Since 1 July snowfall 8.8  
Snow Depth -    
Sea Level Pressure  
Sea Level Pressure 30.16 in    
Wind  
Wind Speed 9 mph (WSW)    
Max Wind Speed 16 mph    
Max Gust Speed -    
Visibility 10 miles    
Events      
T = Trace of Precipitation, MM = Missing Value Source: NWS Daily Summary

Daily Weather History Graph

Daily Weather History Graph

Search for Another Location

Airport:

Trip Planner

Search our weather history database for the weather conditions in past years. The results will help you decide how hot, cold, wet, or windy it might be!

Date:

Astronomy

Dec. 09, 2013 Rise Set
Actual Time 7:52 AM CST 5:20 PM CST
Civil Twilight 7:22 AM CST 5:50 PM CST
Nautical Twilight 6:49 AM CST 6:24 PM CST
Astronomical Twilight 6:16 AM CST 6:56 PM CST
Moon 12:48 PM CST (12/9) 12:10 AM CST (12/9)
Length of Visible Light 10h 27m
Length of Day
9h 27m
Waxing Crescent, 51% of the Moon is Illuminated
Dec 9
Waxing Crescent
Dec 17
Full
Dec 25
Last Quarter
Jan 1
New
Jan 7
First Quarter

Hourly Weather History & Observations

Time (CST) Temp. Windchill Dew Point Humidity Pressure Visibility Wind Dir Wind Speed Gust Speed Precip Events Conditions
12:15 AM -4.0 °F -20.2 °F -7.6 °F 85% 30.13 in 10.0 mi WNW 9.2 mph - N/A   Clear
12:35 AM -2.2 °F -16.8 °F -4.0 °F 92% 30.13 in 10.0 mi WNW 8.1 mph - N/A   Clear
12:55 AM -2.2 °F -16.8 °F -4.0 °F 92% 30.14 in 10.0 mi WNW 8.1 mph - N/A   Clear
1:15 AM -4.0 °F -19.0 °F -5.8 °F 92% 30.14 in 10.0 mi NW 8.1 mph - N/A   Clear
1:35 AM -0.4 °F -17.6 °F -4.0 °F 85% 30.13 in 10.0 mi NW 11.5 mph - N/A   Mostly Cloudy
1:55 AM -0.4 °F -15.7 °F -4.0 °F 85% 30.13 in 10.0 mi NW 9.2 mph - N/A   Mostly Cloudy
2:15 AM -2.2 °F -15.6 °F -5.8 °F 85% 30.14 in 10.0 mi WNW 6.9 mph - N/A   Mostly Cloudy
2:35 AM -0.4 °F -15.7 °F -4.0 °F 85% 30.15 in 10.0 mi NW 9.2 mph - N/A   Mostly Cloudy
2:55 AM -4.0 °F -16.3 °F -5.8 °F 92% 30.17 in 10.0 mi West 5.8 mph - N/A   Scattered Clouds
3:15 AM -5.8 °F -22.4 °F -7.6 °F 92% 30.18 in 10.0 mi WNW 9.2 mph - N/A   Scattered Clouds
3:35 AM -5.8 °F -22.4 °F -7.6 °F 92% 30.18 in 10.0 mi WNW 9.2 mph - N/A   Clear
3:55 AM -5.8 °F -22.4 °F -9.4 °F 84% 30.18 in 10.0 mi WNW 9.2 mph - N/A   Clear
4:15 AM -4.0 °F -20.2 °F -5.8 °F 92% 30.18 in 10.0 mi West 9.2 mph - N/A   Mostly Cloudy
4:35 AM -2.2 °F -16.8 °F -5.8 °F 85% 30.18 in 10.0 mi WNW 8.1 mph - N/A   Overcast
4:55 AM -2.2 °F -15.6 °F -4.0 °F 92% 30.18 in 10.0 mi WNW 6.9 mph - N/A   Overcast
5:15 AM 1.4 °F -9.9 °F -0.4 °F 92% 30.19 in 10.0 mi SSW 5.8 mph - N/A   Overcast
5:35 AM 3.2 °F -10.3 °F -0.4 °F 85% 30.21 in 10.0 mi SW 8.1 mph - N/A   Overcast
5:55 AM 3.2 °F -10.3 °F -0.4 °F 85% 30.20 in 10.0 mi WSW 8.1 mph - N/A   Overcast
6:15 AM 1.4 °F -11.3 °F -2.2 °F 85% 30.20 in 10.0 mi WSW 6.9 mph - N/A   Overcast
6:35 AM -0.4 °F -13.4 °F -4.0 °F 85% 30.20 in 10.0 mi WSW 6.9 mph - N/A   Overcast
6:55 AM -4.0 °F -14.6 °F -5.8 °F 92% 30.21 in 10.0 mi WSW 4.6 mph - N/A   Scattered Clouds
7:15 AM -4.0 °F -16.3 °F -5.8 °F 92% 30.21 in 10.0 mi West 5.8 mph - N/A   Clear
7:35 AM -4.0 °F -20.2 °F -5.8 °F 92% 30.20 in 10.0 mi West 9.2 mph - N/A   Clear
7:55 AM -5.8 °F -18.4 °F -7.6 °F 92% 30.21 in 10.0 mi West 5.8 mph - N/A   Clear
8:15 AM -4.0 °F -20.2 °F -5.8 °F 92% 30.22 in 10.0 mi West 9.2 mph - N/A   Clear
8:35 AM -0.4 °F -13.4 °F -4.0 °F 85% 30.22 in 10.0 mi West 6.9 mph - N/A   Clear
8:55 AM 3.2 °F -10.3 °F 1.4 °F 92% 30.22 in 10.0 mi West 8.1 mph - N/A   Clear
9:15 AM 8.6 °F -1.3 °F 5.0 °F 85% 30.22 in 10.0 mi West 5.8 mph - N/A   Scattered Clouds
9:35 AM 10.4 °F -1.5 °F 5.0 °F 79% 30.21 in 10.0 mi West 8.1 mph - N/A   Clear
9:55 AM 12.2 °F 1.7 °F 5.0 °F 73% 30.22 in 10.0 mi West 6.9 mph - N/A   Clear
10:15 AM 12.2 °F 4.3 °F 6.8 °F 79% 30.24 in 10.0 mi West 4.6 mph - N/A   Clear
10:35 AM 14.0 °F 3.9 °F 8.6 °F 79% 30.23 in 10.0 mi West 6.9 mph - N/A   Clear
10:55 AM 15.8 °F 6.1 °F 6.8 °F 68% 30.24 in 10.0 mi West 6.9 mph - N/A   Clear
11:15 AM 14.0 °F 2.0 °F 5.0 °F 67% 30.23 in 10.0 mi West 9.2 mph - N/A   Clear
11:35 AM 15.8 °F 5.1 °F 5.0 °F 62% 30.22 in 10.0 mi West 8.1 mph - N/A   Clear
11:55 AM 17.6 °F 7.3 °F 6.8 °F 63% 30.21 in 10.0 mi West 8.1 mph - N/A   Clear
12:15 PM 17.6 °F 7.3 °F 8.6 °F 68% 30.18 in 10.0 mi West 8.1 mph - N/A   Clear
12:35 PM 19.4 °F 10.4 °F 8.6 °F 63% 30.17 in 10.0 mi WSW 6.9 mph - N/A   Clear
12:55 PM 19.4 °F 10.4 °F 10.4 °F 68% 30.15 in 10.0 mi SW 6.9 mph - N/A   Clear
1:10 PM 21.2 °F 11.7 °F 10.4 °F 63% 30.15 in 10.0 mi West 8.1 mph - N/A   Clear
1:35 PM 21.2 °F 10.1 °F 10.4 °F 63% 30.14 in 10.0 mi SW 10.4 mph - N/A   Clear
1:55 PM 23.0 °F 11.1 °F 10.4 °F 59% 30.13 in 10.0 mi WSW 12.7 mph - N/A   Clear
2:15 PM 23.0 °F 11.1 °F 12.2 °F 63% 30.12 in 10.0 mi WSW 12.7 mph - N/A   Clear
2:35 PM 23.0 °F 13.9 °F 12.2 °F 63% 30.13 in 10.0 mi SW 8.1 mph - N/A   Clear
2:55 PM 23.0 °F 12.4 °F 12.2 °F 63% 30.12 in 10.0 mi SW 10.4 mph - N/A   Clear
3:15 PM 23.0 °F 13.1 °F 14.0 °F 68% 30.12 in 10.0 mi SW 9.2 mph - N/A   Clear
3:35 PM 23.0 °F 11.7 °F 14.0 °F 68% 30.12 in 10.0 mi SW 11.5 mph - N/A   Clear
3:55 PM 23.0 °F 13.1 °F 14.0 °F 68% 30.12 in 10.0 mi SW 9.2 mph - N/A   Clear
4:15 PM 23.0 °F 10.6 °F 14.0 °F 68% 30.12 in 10.0 mi SW 13.8 mph - N/A   Clear
4:35 PM 23.0 °F 13.1 °F 14.0 °F 68% 30.12 in 10.0 mi SW 9.2 mph - N/A   Clear
4:55 PM 21.2 °F 12.6 °F 14.0 °F 74% 30.12 in 10.0 mi SSW 6.9 mph - N/A   Clear
5:15 PM 19.4 °F 8.6 °F 12.2 °F 74% 30.11 in 10.0 mi SSW 9.2 mph - N/A   Clear
5:35 PM 17.6 °F 7.3 °F 12.2 °F 79% 30.12 in 10.0 mi SSW 8.1 mph - N/A   Clear
5:55 PM 14.0 °F 2.9 °F 10.4 °F 86% 30.12 in 10.0 mi SW 8.1 mph - N/A   Clear
6:15 PM 10.4 °F -3.3 °F 6.8 °F 85% 30.13 in 10.0 mi SW 10.4 mph - N/A   Clear
6:35 PM 12.2 °F -1.0 °F 8.6 °F 85% 30.13 in 10.0 mi SW 10.4 mph - N/A   Clear
6:55 PM 10.4 °F -1.5 °F 6.8 °F 85% 30.13 in 10.0 mi SSW 8.1 mph - N/A   Clear
7:15 PM 10.4 °F -3.3 °F 5.0 °F 79% 30.14 in 10.0 mi SW 10.4 mph - N/A   Clear
7:35 PM 10.4 °F -3.3 °F 6.8 °F 85% 30.14 in 10.0 mi WSW 10.4 mph - N/A   Clear
7:55 PM 10.4 °F -2.4 °F 6.8 °F 85% 30.14 in 10.0 mi SW 9.2 mph - N/A   Clear
8:15 PM 14.0 °F -0.8 °F 8.6 °F 79% 30.14 in 10.0 mi SW 13.8 mph - N/A   Clear
8:35 PM 12.2 °F -1.0 °F 8.6 °F 85% 30.14 in 10.0 mi SW 10.4 mph - N/A   Clear
8:55 PM 14.0 °F -0.2 °F 8.6 °F 79% 30.13 in 10.0 mi SW 12.7 mph - N/A   Clear
9:15 PM 14.0 °F 1.2 °F 8.6 °F 79% 30.14 in 10.0 mi SSW 10.4 mph - N/A   Clear
9:35 PM 12.2 °F -0.2 °F 6.8 °F 79% 30.14 in 10.0 mi SW 9.2 mph - N/A   Clear
9:55 PM 12.2 °F -1.8 °F 6.8 °F 79% 30.14 in 10.0 mi WSW 11.5 mph - N/A   Clear
10:15 PM 14.0 °F -2.0 °F 8.6 °F 79% 30.15 in 10.0 mi WSW 16.1 mph - N/A   Clear
10:35 PM 15.8 °F 0.9 °F 8.6 °F 73% 30.14 in 10.0 mi WSW 15.0 mph - N/A   Clear
10:55 PM 14.0 °F -0.8 °F 8.6 °F 79% 30.15 in 10.0 mi WSW 13.8 mph - N/A   Clear
11:15 PM 12.2 °F -1.0 °F 8.6 °F 85% 30.16 in 10.0 mi WSW 10.4 mph - N/A   Clear
11:35 PM 14.0 °F 0.5 °F 8.6 °F 79% 30.16 in 10.0 mi WSW 11.5 mph - N/A   Clear
11:55 PM 14.0 °F 2.0 °F 8.6 °F 79% 30.16 in 10.0 mi WSW 9.2 mph - N/A   Clear